EST,Max TemperatureF,Mean TemperatureF,Min TemperatureF,Max Dew PointF,MeanDew PointF,Min DewpointF,Max Humidity, Mean Humidity, Min Humidity, Max Sea Level PressureIn, Mean Sea Level PressureIn, Min Sea Level PressureIn, Max VisibilityMiles, Mean VisibilityMiles, Min VisibilityMiles, Max Wind SpeedMPH, Mean Wind SpeedMPH, Max Gust SpeedMPH,PrecipitationIn, CloudCover, Events, WindDirDegrees
2013-2-1,43,35,25,25,8,-39,54,35,4,30.39,30.11,29.83,10,10,9,25,12,41,0.00,2,Snow,288
2013-2-2,39,30,21,19,9,4,66,39,23,30.41,30.27,30.02,10,10,10,12,4,16,0.00,3,,223
2013-2-3,44,39,34,27,23,18,73,53,41,30.00,29.91,29.84,10,10,10,13,6,22,0.00,6,,290
2013-2-4,45,36,27,24,18,13,66,44,35,30.15,30.05,29.96,10,10,10,14,7,21,0.00,1,,241
2013-2-5,57,50,43,33,30,25,56,50,39,29.96,29.92,29.86,10,10,10,17,10,130,0.00,5,,231
2013-2-6,51,42,34,35,30,29,82,63,46,30.34,30.15,29.94,10,9,3,12,5,,0.00,0,,51
2013-2-7,46,42,37,40,32,24,81,66,56,30.42,30.33,30.14,10,9,4,15,8,20,0.38,3,Rain,62
2013-2-8,53,48,44,43,39,26,83,74,49,30.09,29.81,29.68,10,6,2,22,14,32,1.47,6,Rain,348
2013-2-9,50,42,34,25,17,-24,51,41,7,30.39,30.20,29.92,10,10,10,20,12,28,0.00,0,,337
2013-2-10,48,38,28,32,22,15,67,51,27,30.51,30.42,30.30,10,10,10,10,6,,0.00,0,,73
2013-2-11,64,55,46,57,50,32,88,76,56,30.25,30.01,29.83,10,8,2,17,11,25,0.04,7,Rain,206
2013-2-12,60,54,48,46,33,25,60,45,26,30.02,29.95,29.85,10,10,10,13,8,18,0.00,0,,250
2013-2-13,53,48,44,43,41,32,87,74,47,29.93,29.71,29.61,10,6,1,10,3,,0.06,8,Rain,321
2013-2-14,51,44,37,37,33,27,82,66,39,30.08,29.95,29.77,10,9,4,13,7,20,0.00,3,,302
2013-2-15,61,48,36,36,33,30,82,58,31,30.08,30.01,29.94,10,8,3,12,5,,0.00,0,,202
2013-2-16,45,40,35,34,31,28,87,76,62,29.98,29.87,29.79,10,6,1,21,10,40,0.22,7,Rain-Snow,357
2013-2-17,36,32,28,24,10,1,67,40,26,30.24,30.01,29.81,10,10,9,21,12,34,0.00,2,Snow,306
2013-2-18,46,34,21,22,10,3,68,35,21,30.41,30.33,30.26,10,10,10,14,7,18,0.00,0,,256
2013-2-19,57,47,37,48,39,22,82,67,49,30.27,29.96,29.80,10,9,2,17,11,24,0.03,4,Rain,217
2013-2-20,48,42,34,35,19,12,68,42,24,30.15,30.01,29.88,10,10,10,16,9,22,0.00,0,,297
2013-2-21,46,36,25,18,15,12,63,43,29,30.31,30.20,30.14,10,10,10,13,6,21,0.00,0,,333
2013-2-22,42,39,36,37,29,17,87,67,46,30.37,30.28,30.18,10,9,4,14,6,,0.03,7,Rain,53
2013-2-23,46,44,42,41,39,37,87,83,81,30.16,29.96,29.81,10,4,2,9,5,,0.30,8,Rain,347
2013-2-24,57,50,39,43,38,20,87,70,46,30.09,29.87,29.76,10,7,1,16,6,28,0.00,6,Rain,321
2013-2-25,44,37,30,27,21,-18,79,55,10,30.24,30.19,30.11,10,10,8,8,5,,0.00,0,,36
2013-2-26,62,45,30,57,45,24,88,80,71,30.20,29.85,29.55,10,5,2,25,10,39,0.89,7,Rain,98
2013-2-27,61,52,43,55,43,35,88,71,42,29.71,29.64,29.55,10,8,0,15,8,21,0.00,4,Fog,247
2013-2-28,51,46,41,38,32,25,82,58,42,29.77,29.69,29.64,10,10,2,13,5,23,0.00,6,,279